Location: Guferjoch
(46.7462°N, 8.4506°E)
Time: 00:30:23
(UTC+00:00)

Cosmos 1500 - Pass Details

Date: 14 July 2020
Orbit: 498 x 521 km, 82.5° (Epoch: 03 August)

Event Time Altitude Azimuth Distance (km) Brightness Sun altitude
Exits shadow 00:58:28 36° 146° (SE) 819 3.9 -18.9°
Maximum altitude 00:59:36 51° 95° (E) 650 3.7 -18.8°
Drops below altitude 10° 01:03:18 10° 19° (NNE) 1,735 7.1 -18.6°
Sets 01:05:27 0° 14° (NNE) 2,622 8.4 -18.4°
